sat.trackr.live / text

‹ back to catalog

SPOQC

NORAD 68423 · 2026-067H

PAYLOAD ACTIVE UNKNOWN

§ Identity

Operator
Country
NETH
Launch date
2026-03-30
Launch site
AFWTR
Launch vehicle
Mass (kg)
RCS (m²)

External: N2YO · Heavens-Above · Gunter

§ Orbital elements

Epoch: 2026-05-24T20:36:54.279648Z

Period
94.82 min
Inclination
97.4489°
Eccentricity
0.0002132
Mean motion
15.18605949 rev/d
Perigee alt
508.6 km
Apogee alt
511.5 km
Semi-major
6,888.2 km
B*
2.1573e-4
RAAN
103.6709°
Arg perigee
70.1450°
Mean anomaly
290.0014°
Rev number
840

§ Raw data

SPOQC1 68423U 26067H   26144.85896157  .00004396  00000+0  21573-3 0  99922 68423  97.4489 103.6709 0002132  70.1450 290.0014 15.18605949  8403

JSON: /api/v1/satellites/68423 · /tle

For live sub-satellite position, see the globe view (requires WebGL).

§ Visibility from observer

Set your observer location to see the next 7 days of passes ≥ 10°. The values pass through the URL so the page stays shareable.

No JS? Fill the form by hand. The geolocation button needs JavaScript.